Regional Weather Roundup
Issued by NWS

Home | Current Version | Previous Version | Graphics & Text | Print | Product List | Glossary On
Versions: 1 2 3 4 5 6 7 8 9 10 11 12 13 14 15 16 17 18 19 20 21 22 23 24 25 26 27 28 29 30 31 32 33 34 35 36 37 38 39 40 41 42 43 44 45 46 47 48 49 50
958
ASUS43 KIND 172259
RWRIN

WEATHER ROUNDUP FOR INDIANA
NATIONAL WEATHER SERVICE INDIANAPOLIS IN
600 PM EST TUE JAN 17 2017

NOTE: "FAIR" INDICATES FEW OR NO CLOUDS BELOW 12,000 FEET WITH NO
SIGNIFICANT WEATHER AND/OR OBSTRUCTIONS TO VISIBILITY.

* - STATION DOES NOT REPORT WEATHER SUCH AS PRECIPITATION OR FOG.

+ - STATION NOT QUALITY CONTROLLED BY THE NATIONAL WEATHER SERVICE.
    USE DATA WITH CAUTION...ESPECIALLY DEWPOINT AND RELATIVE
    HUMIDITY OBSERVATIONS.

INZ001>003-010>013-019-020-180000-
NORTHWEST INDIANA

CITY           SKY/WX    TMP DP  RH WIND       PRES   REMARKS
GARY /AIRPORT/ CLOUDY    39  36  87 W14       29.95R FOG
MONTICELLO +   CLOUDY    39  37  93 W12       29.95S FOG

$$

LMZ046-743>745-180000-
SOUTHERN LAKE MICHIGAN

STATION/POSITION TIME  TEMP    WIND        PRES    WAVE
                       AIR SEA DIR/SP/G            HT
                 (UTC) (F)     (DEG/KT/KT) (MB)    (FT)
BURNS HARBOR     2240   37     240/ 12/ 17 1014.6R

$$

INZ004-005-014>016-021>024-180000-
NORTH CENTRAL INDIANA

CITY           SKY/WX    TMP DP  RH WIND       PRES   REMARKS
ELKHART        CLOUDY    39  37  93 W12       29.91R
GOSHEN         CLOUDY    39  36  89 W9        29.91R FOG
PERU/GRISSOM   DRIZZLE   41  41 100 W13       29.93R
SOUTH BEND     CLOUDY    37  37 100 W14       29.93R FOG

$$

INZ006>009-017-018-025>027-180000-
NORTHEAST INDIANA

CITY           SKY/WX    TMP DP  RH WIND       PRES   REMARKS
ANGOLA *+      CLOUDY    39  39 100 W9        29.88R
FORT WAYNE     DRIZZLE   42  40  92 W15       29.92R FOG
KENDALLVILLE + FOG       40  40 100 W13       29.90R VSB 1

$$

INZ028-029-035-036-043>045-051>053-180000-
WEST CENTRAL INDIANA

CITY           SKY/WX    TMP DP  RH WIND       PRES   REMARKS
CRAWFORDSVL +  CLOUDY    40  40 100 W10       30.00R FOG
LAFAYETTE      CLOUDY    40  38  93 W13       29.98R
TERRE HAUTE    CLOUDY    43  41  93 W8        30.03S

$$

INZ030>032-037>040-046>048-054>057-064-065-180000-
CENTRAL INDIANA

CITY           SKY/WX    TMP DP  RH WIND       PRES   REMARKS
COLUMBUS       CLOUDY    45  45 100 W12       30.01R
INDIANAPOLIS   CLOUDY    43  40  89 W13       29.99R
-EAGLE CREEK   CLOUDY    44  40  85 W9G18     29.99R
KOKOMO +       LGT RAIN  42  41  96 W14       29.96R
MT COMFORT *+  CLOUDY    43  41  93 W13       29.99R
SHELBYVILLE    CLOUDY    46  41  82 W12       29.99R

$$

INZ033-034-041-042-049-050-058-059-180000-
EAST CENTRAL INDIANA

CITY           SKY/WX    TMP DP  RH WIND       PRES   REMARKS
MUNCIE         CLOUDY    45  42  89 W13       29.95R

$$

INZ060-061-067>069-081>083-085>088-180000-
SOUTHWEST INDIANA

CITY           SKY/WX    TMP DP  RH WIND       PRES   REMARKS
EVANSVILLE     CLOUDY    45  39  79 W9G18     30.10R
HUNTINGBURG *+ CLOUDY    45  39  81 W10       30.08R

$$

INZ062-063-066-070>080-084-089>092-180000-
SOUTH CENTRAL AND SOUTHEAST INDIANA

CITY           SKY/WX    TMP DP  RH WIND       PRES   REMARKS
BLOOMINGTON    CLOUDY    45  40  82 W8G20     30.02R
MADISON *+     CLOUDY    46  41  81 W10       30.04R
SEYMOUR +      CLOUDY    48  41  76 W12       30.03R

$$





USA.gov is the U.S. government's official web portal to all federal, state and local government web resources and services.